Skip Page Navigation
NASA JPL Caltech
NASA Logo - Jet Propulsion Laboratory + View the NASA Portal
+ Near-Earth Object (NEO) Program
Search JPL
JPL Home Earth Solar System Stars & Galaxies Technology
JPL Solar System Dynamics
BODIES ORBITS EPHEMERIDES TOOLS PHYSICAL DATA DISCOVERY FAQ SITE MAP
JPL Small-Body Database Browser
Search: [ help ]  
(2002 JE9)
Classification: Apollo [NEO, PHA]          SPK-ID: 3125003
Ephemeris | Orbit Diagram | Orbital Elements | Physical Parameters | Close-Approach Data ]

[ show orbit diagram ]
Orbital Elements at Epoch 2456400.5 (2013-Apr-18.0) TDB
Reference: JPL 26 (heliocentric ecliptic J2000)
 Element Value Uncertainty (1-sigma)   Units 
e .4167085737341791 2.1574e-07  
a 1.067787824594445 8.2568e-09 AU
q .6228314831569717 2.3361e-07 AU
i 8.830422373181353 1.5107e-05 deg
node 200.0945659884025 5.4293e-05 deg
peri 255.4001059295646 5.1182e-05 deg
M 48.033321335586 5.031e-05 deg
tp 2456346.726786535469
(2013-Feb-23.22678654)
5.5778e-05 JED
period 403.0193271871284
1.10
4.6746e-06
1.28e-08
d
yr
n .8932574090493833 1.0361e-08 deg/d
Q 1.512744166031917 1.1697e-08 AU
  Orbit Determination Parameters
   # obs. used (total)      104  
   data-arc span      4014 days (10.99 yr)  
   first obs. used      2001-05-30  
   last obs. used      2012-05-26  
   planetary ephem.      DE405  
   SB-pert. ephem.      SB405-CPV-2  
   condition code      0  
   fit RMS      .70914  
   data source      ORB  
   producer      Otto Matic  
   solution date      2012-May-27 00:59:06  

Additional Information
 Earth MOID = .00532191 AU 
 T_jup = 5.687 
[ show covariance matrix ]

Ephemeris | Orbit Diagram | Orbital Elements | Physical Parameters | Close-Approach Data ]

Physical Parameter Table
Parameter Symbol Value Units Sigma Reference Notes
absolute magnitude H 21.306 mag .89694 26 autocmod 2.5b

[ hide close-approach data ]
Close-Approach Data   ...sorted by Date/Time (TDB)
Date/Time (TDB) Time Uncertainty
(days_HH:MM)
Body Nominal Distance (AU) Minimum Distance (AU) Maximum Distance (AU) V-relative (km/s) V-infinity (km/s) JD (TDB) Time Uncertainty (minutes) Semi-major axis (km) Semi-minor axis (km) range-LOV angle (deg) N-sigma BP Orbit Ref. Reference Modified
1924-Sep-03 04:07 05:49 Earth 0.281724775990928 0.231593457654497 0.332514094305312 20.8845831645967 20.8841303022541 2424031.671730961 349.395319809938 2559405.27023034 113.727232388351 -17.5352423761425 98453.7702321413 T 26 CATAB v2.0c-linF95 2012-May-27 01:58:10 2012-May-27 01:59
1924-Dec-01 12:50 12:31 Venus 0.147333851650386 0.132936595936918 0.169400526448475 16.0408537704319 16.0399349061468 2424121.035227430 751.525056874489 1680919.73593982 152.940013199508 54.0812682792236 98119.9748700306 T 26 CATAB v2.0c-linF95 2012-May-27 01:58:10 2012-May-27 01:59
1925-Aug-07 05:05 00:44 Earth 0.455006407319454 0.441048843854332 0.468925386784046 9.34796086039161 9.34733440159948 2424369.711853000 44.7103549306586 607563.020047052 236.895199883305 17.4827880064716 55451.8191219122 T 26 CATAB v2.0c-linF95 2012-May-27 01:58:10 2012-May-27 01:59
1927-Apr-10 00:02 1_16:35 Earth 0.0226845426194232 0.000565695574616918 0.184370852028107 12.5245391716451 12.5151574345165 2424980.501653698 2435.54026633831 4647976.69699796 15.184458278402 1.49829122288309 3944.7760150751 T 26 CATAB v2.0c-linF95 2012-May-27 01:58:10 2012-May-27 01:59
1959-Aug-29 00:43 23:23 Earth 0.398765701790488 0.320640797481464 0.477704305207253 24.4744540162935 24.4741810028914 2436809.530285505 1403.53362999638 3999544.12241788 97.5463655900452 -11.6134488602891 111978.184551117 T 26 CATAB v2.0c-linF95 2012-May-27 01:58:10 2012-May-27 01:59
1962-Apr-05 11:29 03:10 Earth 0.166494552035216 0.106406394971773 0.251802686055291 8.76687740347707 8.76505177410323 2437759.979154622 190.938309823804 1544692.8978065 4.6863223394504 1.03206905081198 57827.3762750336 T 26 CATAB v2.0c-linF95 2012-May-27 01:58:10 2012-May-27 01:59
1968-Sep-05 10:15 05:37 Earth 0.239127581194126 0.221580711068878 0.256783231564525 19.5809053744405 19.5803363168441 2440104.927243368 337.582735000195 890994.344200799 105.457275397801 -19.2203767959124 96996.5913068734 T 26 CATAB v2.0c-linF95 2012-May-27 01:58:10 2012-May-27 01:59
1969-Aug-03 20:51 23:45 Earth 0.468526152161481 0.464734020352947 0.472381534740546 9.58262249376702 9.58202901171996 2440437.368846539 1425.52939277595 82210.3983007004 256.14431127567 -37.9124745273338 109606.897644135 T 26 CATAB v2.0c-linF95 2012-May-27 01:58:10 2012-May-27 01:59
1969-Dec-11 21:57 1_04:19 Earth 0.36199999837808 0.360245185947496 0.363789050478716 14.0420477340193 14.0415235528124 2440567.415180688 1699.16506274797 95935.8919138968 141.380183088107 66.3439309017855 274791.950778482 T 26 CATAB v2.0c-linF95 2012-May-27 01:58:10 2012-May-27 01:59
1971-Apr-11 02:55 00:04 Earth 0.0015993835894862 0.00151632979310902 0.00169607330195714 13.2389003667292 13.1124597288002 2441052.621641268 4.03321669421918 6587.52535674007 18.2696830633566 58.7212357416661 8259.74808672193 T 26 CATAB v2.0c-linF95 2012-May-27 01:58:10 2012-May-27 01:59
1971-Apr-11 10:25 00:03 Moon 0.00244096454846631 0.00243837415439685 0.0024548306384614 13.5108214870923 13.5098277040961 2441052.934455388 3.04332237586067 8677.57664614914 23.2156978822287 87.5781847381992 15404.1515860151 T 26 CATAB v2.0c-linF95 2012-May-27 01:58:10 2012-May-27 01:59
1978-Sep-19 01:11 00:01 Earth 0.103402635332418 0.103368158926781 0.103437144771138 11.2348954387883 11.2326016361471 2443770.549728660 1.710176618902 2019.08687412024 24.4207349687637 62.271466372019 397870.507845915 T 26 CATAB v2.0c-linF95 2012-May-27 01:58:10 2012-May-27 01:59
1980-Jan-03 08:39 00:07 Earth 0.377072764902884 0.377071657121031 0.377073873121041 14.5640678496345 14.5635826597597 2444241.860514704 7.43085383503478 245.934550111333 30.0994963327229 -22.2691498049973 588500.799170941 T 26 CATAB v2.0c-linF95 2012-May-27 01:58:10 2012-May-27 01:59
1980-May-26 05:49 < 00:01 Earth 0.469215835106156 0.469207804159695 0.469223866050537 10.2373694429267 10.2368147366455 2444385.742759076 0.760181705607137 331.335973873981 21.3550572307923 -20.497389561192 789894.789466707 T 26 CATAB v2.0c-linF95 2012-May-27 01:58:10 2012-May-27 01:59
1981-Apr-13 05:48 < 00:01 Earth 0.0618587799618787 0.0618524141937902 0.0618651457441707 14.8987497276832 14.8958583600019 2444707.742264747 0.655913007973464 289.639569923095 189.810466627838 31.8438588527278 29920.044343582 T 26 CATAB v2.0c-linF95 2012-May-27 01:58:10 2012-May-27 01:59
1984-May-16 06:13 00:01 Venus 0.00582676956063013 0.00579710852329624 0.00585656356597941 13.8189261071769 13.7919306165269 2445836.759712833 1.53935533310247 1641.22916848122 9.34153714275899 43.1710926579655 50566.0373594913 T 26 CATAB v2.0c-linF95 2012-May-27 01:58:10 2012-May-27 01:59
1988-Sep-15 15:17 < 00:01 Earth 0.0800012692577423 0.0800005856081493 0.0800019529333831 12.482422954172 12.4797544799828 2447420.136846730 0.143716858580951 118.085241845604 23.0509316962422 88.1001624727497 386878.325406519 T 26 CATAB v2.0c-linF95 2012-May-27 01:58:10 2012-May-27 01:59
1989-Jul-21 02:43 < 00:01 Earth 0.495660191353659 0.495657951494761 0.495662431210918 10.2085393125543 10.2080127185504 2447728.613419396 0.387961494173793 84.1235448567757 38.576241771832 4.71779709926209 602861.894787142 T 26 CATAB v2.0c-linF95 2012-May-27 01:58:10 2012-May-27 01:59
1989-Nov-28 03:28 < 00:01 Venus 0.0106745041046302 0.0106706428875813 0.0106783654292076 14.0311385429902 14.0166323687275 2447858.645065107 0.0934335255484275 163.71107662248 10.3079983343875 17.0777396072263 36857.567957291 T 26 CATAB v2.0c-linF95 2012-May-27 01:58:10 2012-May-27 01:59
1989-Dec-23 22:23 < 00:01 Earth 0.378300628250581 0.378299854654107 0.378301401847165 14.7114021842 14.7109234127002 2447884.433021567 0.496094634430212 43.6310241874094 16.9905508689525 8.05733087316178 1089120.07991583 T 26 CATAB v2.0c-linF95 2012-May-27 01:58:10 2012-May-27 01:59
1990-Jun-04 11:21 < 00:01 Earth 0.490161520780262 0.490161130501193 0.490161911060113 10.4789021532025 10.4783833912643 2448046.973565430 0.36575239784983 30.4387145640642 26.4453665320408 -78.9951398916379 1890799.15802575 T 26 CATAB v2.0c-linF95 2012-May-27 01:58:10 2012-May-27 01:59
1991-Apr-09 05:04 < 00:01 Earth 0.0827380282158351 0.0827359097155367 0.0827401467331199 10.8074361258817 10.804455932862 2448355.711208973 0.030896318009489 64.8503982561108 12.4593945782654 4.05895141471991 141115.128113046 T 26 CATAB v2.0c-linF95 2012-May-27 01:58:10 2012-May-27 01:59
1998-Aug-25 06:17 < 00:01 Earth 0.419133396347653 0.419130273617115 0.419136519078557 25.0462456223897 25.0459918060056 2451050.761811644 0.0262766740653657 155.802359983265 27.8232157124261 -12.3175271903298 567254.566176189 T 26 CATAB v2.0c-linF95 2012-May-27 01:58:10 2012-May-27 01:59
1999-Oct-09 10:12 < 00:01 Earth 0.221179553940478 0.221176888751462 0.221182219171995 8.57848743975121 8.57708303526677 2451460.925433499 0.253543777214817 61.0910955470785 17.0057928821118 29.4469586921519 650268.505100662 T 26 CATAB v2.0c-linF95 2012-May-27 01:58:10 2012-May-27 01:59
2001-Jan-13 19:58 < 00:01 Earth 0.371760815696434 0.371760291633307 0.371761339761067 14.0226324224311 14.0221212974509 2451923.332544503 0.20526795611041 37.7936134418617 19.8111859123064 -8.32355031152977 1183337.54225716 T 26 CATAB v2.0c-linF95 2012-May-27 01:58:10 2012-May-27 01:59
2001-May-22 01:43 < 00:01 Earth 0.437601233079262 0.437600961880187 0.43760150428068 9.89039489686513 9.88977924712316 2452051.571782555 0.17646423529477 26.2206440240911 21.2649916579543 13.660791558156 1680984.49027742 T 26 CATAB v2.0c-linF95 2012-May-27 01:58:10 2012-May-27 01:59
2002-Apr-15 08:25 < 00:01 Earth 0.0788435795829642 0.0788430823381457 0.0788440768275697 15.3166481900082 15.3144416410532 2452379.850830019 0.0327513713054139 21.1398840899671 15.2356407943403 9.76689750208987 456871.012739549 T 26 CATAB v2.0c-linF95 2012-May-27 01:58:10 2012-May-27 01:59
